| time (UTC) | temp F | wind direction | speed MPH | gust MPH | rain 1hr in | rain 24hr in | rain mn in | humidity % | barometer mb |
| 20260903200255 | 75 | 12 | 0.0 | 0.0 | 0.00 | 0.00 | 0.00 | 70 | 1013.5 |
| 20260903195755 | 74 | 22 | 0.0 | 0.0 | 0.00 | 0.00 | 0.00 | 71 | 1013.6 |
| 20260903195255 | 74 | 343 | 0.0 | 0.0 | 0.00 | 0.00 | 0.00 | 71 | 1013.7 |
| 20260903194755 | 74 | 355 | 0.0 | 0.0 | 0.00 | 0.00 | 0.00 | 74 | 1013.8 |
| 20260903194255 | 74 | 34 | 0.0 | 0.0 | 0.00 | 0.00 | 0.00 | 74 | 1013.8 |
| 20260903193755 | 74 | 42 | 0.0 | 0.0 | 0.00 | 0.00 | 0.00 | 78 | 1014.0 |
| 20260903193255 | 73 | 16 | 0.0 | 0.0 | 0.00 | 0.00 | 0.00 | 78 | 1014.1 |
| 20260903192755 | 73 | 324 | 0.0 | 0.0 | 0.00 | 0.00 | 0.00 | 78 | 1014.3 |
| 20260903192255 | 73 | 9 | 0.0 | 0.0 | 0.00 | 0.00 | 0.00 | 77 | 1014.3 |
| 20260903191255 | 73 | 47 | 0.0 | 0.0 | 0.00 | 0.00 | 0.00 | 76 | 1014.7 |
| 20260903190755 | 73 | 37 | 0.0 | 0.0 | 0.00 | 0.00 | 0.00 | 76 | 1014.7 |
| 20260903190255 | 73 | 331 | 0.0 | 0.0 | 0.00 | 0.00 | 0.00 | 77 | 1014.8 |
| 20260903185755 | 73 | 331 | 0.0 | 0.0 | 0.00 | 0.00 | 0.00 | 77 | 1015.1 |
| 20260903184255 | 73 | 337 | 0.0 | 0.0 | 0.00 | 0.00 | 0.00 | 78 | 1015.3 |
| 20260903183755 | 73 | 336 | 0.0 | 0.0 | 0.00 | 0.00 | 0.00 | 76 | 1015.3 |
| 20260903183255 | 73 | 336 | 0.0 | 0.0 | 0.00 | 0.00 | 0.00 | 77 | 1015.3 |
| 20260903182755 | 73 | 336 | 0.0 | 0.0 | 0.00 | 0.00 | 0.00 | 78 | 1015.5 |
| 20260903182255 | 73 | 336 | 0.0 | 0.0 | 0.00 | 0.00 | 0.00 | 79 | 1015.6 |
| 20260903181755 | 73 | 207 | 0.0 | 0.0 | 0.00 | 0.00 | 0.00 | 78 | 1015.9 |
| 20260903181255 | 73 | 204 | 0.0 | 0.0 | 0.00 | 0.00 | 0.00 | 77 | 1016.0 |
| 20260903180755 | 73 | 204 | 0.0 | 0.0 | 0.00 | 0.00 | 0.00 | 77 | 1016.0 |
| 20260903175749 | 73 | 204 | 0.0 | 0.0 | 0.00 | 0.00 | 0.00 | 77 | 1015.7 |
| 20260903174749 | 73 | 177 | 0.0 | 0.0 | 0.00 | 0.00 | 0.00 | 77 | 1015.5 |
| 20260903173749 | 73 | 34 | 0.0 | 0.0 | 0.00 | 0.00 | 0.00 | 76 | 1015.1 |
| 20260903172254 | 73 | 18 | 0.0 | 0.0 | 0.00 | 0.00 | 0.00 | 74 | 1014.7 |
| 20260903171754 | 73 | 34 | 0.0 | 0.0 | 0.00 | 0.00 | 0.00 | 73 | 1014.6 |
| 20260903171254 | 73 | 44 | 0.0 | 0.0 | 0.00 | 0.00 | 0.00 | 72 | 1014.5 |
| 20260903170754 | 73 | 44 | 0.0 | 0.0 | 0.00 | 0.00 | 0.00 | 72 | 1014.4 |
| 20260903170254 | 73 | 15 | 0.0 | 0.0 | 0.00 | 0.00 | 0.00 | 72 | 1014.3 |
| 20260903165754 | 74 | 28 | 0.0 | 0.0 | 0.00 | 0.00 | 0.00 | 70 | 1014.1 |
| 20260903164754 | 74 | 30 | 0.0 | 0.0 | 0.00 | 0.00 | 0.00 | 70 | 1013.9 |
| 20260903164254 | 74 | 22 | 0.0 | 0.0 | 0.00 | 0.00 | 0.00 | 67 | 1014.1 |
| 20260903163754 | 74 | 53 | 0.0 | 0.0 | 0.00 | 0.00 | 0.00 | 65 | 1014.2 |
| 20260903163254 | 74 | 54 | 0.0 | 0.0 | 0.00 | 0.00 | 0.00 | 68 | 1014.3 |
| 20260903162754 | 74 | 46 | 0.0 | 0.0 | 0.00 | 0.00 | 0.00 | 70 | 1014.3 |
| 20260903162254 | 74 | 23 | 0.0 | 0.0 | 0.00 | 0.00 | 0.00 | 69 | 1014.5 |
| 20260903161754 | 74 | 71 | 0.0 | 0.0 | 0.00 | 0.00 | 0.00 | 73 | 1014.4 |
| 20260903161254 | 74 | 78 | 0.0 | 0.0 | 0.00 | 0.00 | 0.00 | 73 | 1014.2 |
| 20260903160754 | 74 | 33 | 0.0 | 0.0 | 0.00 | 0.00 | 0.00 | 70 | 1014.1 |
| 20260903160253 | 74 | 25 | 0.0 | 0.0 | 0.00 | 0.00 | 0.00 | 70 | 1014.1 |
| 20260903155754 | 74 | 28 | 0.0 | 0.0 | 0.00 | 0.00 | 0.00 | 69 | 1014.0 |
| 20260903155254 | 74 | 46 | 0.0 | 0.0 | 0.00 | 0.00 | 0.00 | 72 | 1013.8 |
| 20260903154754 | 75 | 23 | 0.0 | 0.0 | 0.00 | 0.00 | 0.00 | 70 | 1014.0 |
| 20260903154254 | 75 | 355 | 0.0 | 0.0 | 0.00 | 0.00 | 0.00 | 72 | 1014.0 |
| 20260903153754 | 75 | 43 | 0.0 | 0.0 | 0.00 | 0.00 | 0.00 | 71 | 1013.9 |
| 20260903153254 | 75 | 103 | 0.0 | 0.0 | 0.00 | 0.00 | 0.00 | 71 | 1014.1 |
| 20260903152754 | 75 | 41 | 0.0 | 0.0 | 0.00 | 0.00 | 0.00 | 71 | 1014.2 |
| 20260903152254 | 75 | 337 | 0.0 | 0.0 | 0.00 | 0.00 | 0.00 | 71 | 1014.2 |
| 20260903151754 | 75 | 46 | 0.0 | 0.0 | 0.00 | 0.00 | 0.00 | 72 | 1014.2 |
| 20260903151254 | 75 | 90 | 0.0 | 0.0 | 0.00 | 0.00 | 0.00 | 71 | 1014.4 |
| 20260903150754 | 75 | 136 | 0.0 | 0.0 | 0.00 | 0.00 | 0.00 | 71 | 1014.5 |
| 20260903150254 | 74 | 131 | 0.0 | 0.0 | 0.00 | 0.00 | 0.00 | 72 | 1014.6 |
| 20260903145754 | 74 | 140 | 0.0 | 0.0 | 0.00 | 0.00 | 0.00 | 73 | 1014.7 |
| 20260903145254 | 74 | 116 | 0.0 | 0.0 | 0.00 | 0.00 | 0.00 | 74 | 1014.7 |
| 20260903144754 | 74 | 98 | 0.0 | 0.0 | 0.00 | 0.00 | 0.00 | 75 | 1014.7 |
| 20260903144254 | 73 | 95 | 0.0 | 0.0 | 0.00 | 0.00 | 0.00 | 76 | 1014.5 |
| 20260903143754 | 73 | 113 | 0.0 | 0.0 | 0.00 | 0.00 | 0.00 | 78 | 1014.5 |
| 20260903143254 | 73 | 61 | 0.0 | 0.0 | 0.00 | 0.00 | 0.00 | 77 | 1014.5 |
| 20260903142754 | 73 | 211 | 0.0 | 0.0 | 0.00 | 0.00 | 0.00 | 78 | 1014.5 |
| 20260903141754 | 72 | 171 | 0.0 | 0.0 | 0.00 | 0.00 | 0.00 | 81 | 1014.4 |
| 20260903141254 | 72 | 76 | 0.0 | 0.0 | 0.00 | 0.00 | 0.00 | 82 | 1014.4 |
| 20260903135759 | 71 | 55 | 0.0 | 0.0 | 0.00 | 0.00 | 0.00 | 85 | 1014.3 |
| 20260903135258 | 70 | 107 | 0.0 | 0.0 | 0.00 | 0.00 | 0.00 | 86 | 1014.3 |
| 20260903134759 | 70 | 355 | 0.0 | 0.0 | 0.00 | 0.00 | 0.00 | 88 | 1014.4 |
| 20260903134259 | 69 | 53 | 0.0 | 0.0 | 0.00 | 0.00 | 0.00 | 88 | 1014.4 |
| 20260903133259 | 68 | 75 | 0.0 | 0.0 | 0.00 | 0.00 | 0.00 | 90 | 1014.5 |
| 20260903132758 | 67 | 50 | 0.0 | 0.0 | 0.00 | 0.00 | 0.00 | 93 | 1014.3 |
| 20260903132259 | 67 | 78 | 0.0 | 0.0 | 0.00 | 0.01 | 0.00 | 94 | 1014.4 |
| 20260903130759 | 65 | 67 | 0.0 | 0.0 | 0.00 | 0.01 | 0.00 | 93 | 1014.5 |
| 20260903130259 | 65 | 80 | 0.0 | 0.0 | 0.00 | 0.01 | 0.00 | 93 | 1014.4 |
| 20260903125759 | 64 | 40 | 0.0 | 0.0 | 0.00 | 0.02 | 0.00 | 93 | 1014.4 |
| 20260903125259 | 63 | 40 | 0.0 | 0.0 | 0.00 | 0.03 | 0.00 | 93 | 1014.6 |
| 20260903124759 | 63 | 63 | 0.0 | 0.0 | 0.00 | 0.04 | 0.00 | 93 | 1014.5 |
| 20260903124259 | 62 | 63 | 0.0 | 0.0 | 0.00 | 0.05 | 0.00 | 93 | 1014.5 |
| 20260903123759 | 61 | 67 | 0.0 | 0.0 | 0.00 | 0.08 | 0.00 | 93 | 1014.5 |
| 20260903123259 | 61 | 67 | 0.0 | 0.0 | 0.00 | 0.08 | 0.00 | 93 | 1014.6 |
| 20260903122729 | 60 | 330 | 0.0 | 0.0 | 0.00 | 0.09 | 0.00 | 93 | 1014.6 |
| 20260903122259 | 59 | 290 | 0.0 | 0.0 | 0.00 | 0.09 | 0.00 | 93 | 1014.6 |
| 20260903121758 | 58 | 290 | 0.0 | 0.0 | 0.00 | 0.09 | 0.00 | 93 | 1014.5 |
| 20260903121259 | 58 | 290 | 0.0 | 0.0 | 0.00 | 0.09 | 0.00 | 93 | 1014.3 |
| 20260903120759 | 57 | 290 | 0.0 | 0.0 | 0.00 | 0.09 | 0.00 | 93 | 1014.3 |
| 20260903120258 | 57 | 290 | 0.0 | 0.0 | 0.00 | 0.09 | 0.00 | 93 | 1014.2 |
| 20260903115758 | 57 | 290 | 0.0 | 0.0 | 0.00 | 0.09 | 0.00 | 93 | 1014.4 |
| 20260903114759 | 57 | 290 | 0.0 | 0.0 | 0.00 | 0.09 | 0.00 | 94 | 1014.6 |
| 20260903114259 | 57 | 290 | 0.0 | 0.0 | 0.00 | 0.09 | 0.00 | 93 | 1014.5 |
| 20260903113758 | 56 | 290 | 0.0 | 0.0 | 0.00 | 0.09 | 0.00 | 94 | 1014.4 |
| 20260903113259 | 56 | 290 | 0.0 | 0.0 | 0.00 | 0.09 | 0.00 | 94 | 1014.4 |
| 20260903112759 | 57 | 290 | 0.0 | 0.0 | 0.00 | 0.09 | 0.00 | 94 | 1014.2 |
| 20260903111759 | 56 | 290 | 0.0 | 0.0 | 0.00 | 0.09 | 0.00 | 94 | 1014.2 |
| 20260903111228 | 57 | 290 | 0.0 | 0.0 | 0.00 | 0.09 | 0.00 | 94 | 1014.2 |
| 20260903110759 | 56 | 290 | 0.0 | 0.0 | 0.00 | 0.09 | 0.00 | 94 | 1014.2 |
| 20260903110258 | 56 | 290 | 0.0 | 0.0 | 0.00 | 0.09 | 0.00 | 94 | 1014.1 |
| 20260903105758 | 57 | 290 | 0.0 | 0.0 | 0.00 | 0.09 | 0.00 | 94 | 1014.1 |
| 20260903105258 | 57 | 290 | 0.0 | 0.0 | 0.00 | 0.09 | 0.00 | 94 | 1014.1 |
| 20260903104758 | 57 | 290 | 0.0 | 0.0 | 0.00 | 0.09 | 0.00 | 94 | 1014.0 |
| 20260903104259 | 57 | 290 | 0.0 | 0.0 | 0.00 | 0.09 | 0.00 | 94 | 1014.0 |
| 20260903103259 | 56 | 290 | 0.0 | 0.0 | 0.00 | 0.09 | 0.00 | 94 | 1014.1 |
| 20260903102758 | 56 | 290 | 0.0 | 0.0 | 0.00 | 0.09 | 0.00 | 94 | 1014.2 |
| 20260903102258 | 56 | 290 | 0.0 | 0.0 | 0.00 | 0.09 | 0.00 | 94 | 1013.9 |
| 20260903101759 | 56 | 290 | 0.0 | 0.0 | 0.00 | 0.09 | 0.00 | 94 | 1014.0 |
| 20260903101259 | 56 | 290 | 0.0 | 0.0 | 0.00 | 0.09 | 0.00 | 94 | 1014.0 |
| 20260903100759 | 56 | 290 | 0.0 | 0.0 | 0.00 | 0.09 | 0.00 | 94 | 1014.0 |
| 20260903095239 | 56 | 290 | 0.0 | 0.0 | 0.00 | 0.09 | 0.00 | 94 | 1013.9 |
| 20260903094739 | 56 | 290 | 0.0 | 0.0 | 0.00 | 0.09 | 0.00 | 94 | 1013.9 |
| 20260903094239 | 56 | 290 | 0.0 | 0.0 | 0.00 | 0.09 | 0.00 | 94 | 1013.9 |
| 20260903093739 | 56 | 290 | 0.0 | 0.0 | 0.00 | 0.09 | 0.00 | 94 | 1014.0 |
| 20260903093239 | 56 | 290 | 0.0 | 0.0 | 0.00 | 0.09 | 0.00 | 94 | 1014.0 |
| 20260903092739 | 56 | 290 | 0.0 | 0.0 | 0.00 | 0.09 | 0.00 | 94 | 1014.1 |
| 20260903092239 | 56 | 290 | 0.0 | 0.0 | 0.00 | 0.09 | 0.00 | 94 | 1014.1 |
| 20260903091739 | 56 | 290 | 0.0 | 0.0 | 0.00 | 0.09 | 0.00 | 94 | 1014.0 |
| 20260903091239 | 56 | 290 | 0.0 | 0.0 | 0.00 | 0.09 | 0.00 | 94 | 1013.9 |
| 20260903090739 | 56 | 290 | 0.0 | 0.0 | 0.00 | 0.09 | 0.00 | 94 | 1013.9 |
| 20260903090239 | 56 | 290 | 0.0 | 0.0 | 0.00 | 0.09 | 0.00 | 94 | 1013.8 |
| 20260903085739 | 57 | 290 | 0.0 | 0.0 | 0.00 | 0.09 | 0.00 | 94 | 1013.8 |
| 20260903085239 | 57 | 290 | 0.0 | 0.0 | 0.00 | 0.09 | 0.00 | 94 | 1013.8 |
| 20260903084739 | 57 | 290 | 0.0 | 0.0 | 0.00 | 0.09 | 0.00 | 94 | 1013.8 |
| 20260903082739 | 57 | 290 | 0.0 | 0.0 | 0.00 | 0.09 | 0.00 | 94 | 1013.8 |
| 20260903082239 | 57 | 290 | 0.0 | 0.0 | 0.00 | 0.09 | 0.00 | 94 | 1013.9 |
| 20260903081739 | 57 | 290 | 0.0 | 0.0 | 0.00 | 0.09 | 0.00 | 94 | 1013.9 |
| 20260903081239 | 57 | 290 | 0.0 | 0.0 | 0.00 | 0.09 | 0.00 | 94 | 1014.0 |
| 20260903080239 | 57 | 290 | 0.0 | 0.0 | 0.00 | 0.09 | 0.00 | 94 | 1014.0 |
| 20260903075739 | 57 | 290 | 0.0 | 0.0 | 0.00 | 0.09 | 0.00 | 94 | 1014.0 |
| 20260903075239 | 57 | 290 | 0.0 | 0.0 | 0.00 | 0.09 | 0.00 | 94 | 1013.9 |
| 20260903074739 | 57 | 290 | 0.0 | 0.0 | 0.00 | 0.09 | 0.00 | 94 | 1013.8 |
| 20260903074239 | 57 | 290 | 0.0 | 0.0 | 0.00 | 0.09 | 0.00 | 94 | 1013.8 |
| 20260903073739 | 57 | 290 | 0.0 | 0.0 | 0.00 | 0.09 | 0.00 | 94 | 1013.7 |
| 20260903073239 | 57 | 290 | 0.0 | 0.0 | 0.00 | 0.09 | 0.00 | 94 | 1013.6 |
| 20260903072739 | 57 | 290 | 0.0 | 0.0 | 0.00 | 0.09 | 0.00 | 94 | 1013.6 |
| 20260903071739 | 57 | 290 | 0.0 | 0.0 | 0.00 | 0.09 | 0.00 | 94 | 1013.5 |
| 20260903070739 | 57 | 290 | 0.0 | 0.0 | 0.00 | 0.09 | 0.00 | 94 | 1013.5 |
| 20260903070239 | 57 | 290 | 0.0 | 0.0 | 0.00 | 0.09 | 0.00 | 94 | 1013.4 |
| 20260903065739 | 57 | 290 | 0.0 | 0.0 | 0.00 | 0.09 | 0.00 | 94 | 1013.3 |
| 20260903065239 | 57 | 290 | 0.0 | 0.0 | 0.00 | 0.09 | 0.00 | 94 | 1013.4 |
| 20260903064739 | 57 | 290 | 0.0 | 0.0 | 0.00 | 0.09 | 0.00 | 94 | 1013.5 |
| 20260903064239 | 57 | 290 | 0.0 | 0.0 | 0.00 | 0.09 | 0.00 | 94 | 1013.5 |
| 20260903063739 | 57 | 290 | 0.0 | 0.0 | 0.00 | 0.09 | 0.00 | 94 | 1013.4 |
| 20260903063239 | 57 | 290 | 0.0 | 0.0 | 0.00 | 0.09 | 0.00 | 94 | 1013.4 |
| 20260903062738 | 57 | 290 | 0.0 | 0.0 | 0.00 | 0.09 | 0.00 | 94 | 1013.3 |
| 20260903062238 | 57 | 290 | 0.0 | 0.0 | 0.00 | 0.09 | 0.00 | 94 | 1013.5 |
| 20260903061739 | 57 | 290 | 0.0 | 0.0 | 0.00 | 0.09 | 0.00 | 94 | 1013.4 |
| 20260903061239 | 58 | 290 | 0.0 | 0.0 | 0.00 | 0.09 | 0.00 | 94 | 1013.5 |
| 20260903060739 | 58 | 290 | 0.0 | 0.0 | 0.00 | 0.09 | 0.00 | 94 | 1013.5 |
| 20260903055239 | 58 | 290 | 0.0 | 0.0 | 0.00 | 0.09 | 0.00 | 94 | 1013.5 |
| 20260903054738 | 58 | 290 | 0.0 | 0.0 | 0.00 | 0.09 | 0.00 | 94 | 1013.5 |
| 20260903054238 | 58 | 290 | 0.0 | 0.0 | 0.00 | 0.09 | 0.00 | 94 | 1013.4 |
| 20260903053739 | 58 | 290 | 0.0 | 0.0 | 0.00 | 0.09 | 0.00 | 94 | 1013.4 |
| 20260903053239 | 58 | 290 | 0.0 | 0.0 | 0.00 | 0.09 | 0.00 | 94 | 1013.4 |
| 20260903052739 | 58 | 290 | 0.0 | 0.0 | 0.00 | 0.09 | 0.00 | 94 | 1013.5 |
| 20260903052239 | 58 | 290 | 0.0 | 0.0 | 0.00 | 0.09 | 0.00 | 94 | 1013.4 |
| 20260903051739 | 58 | 290 | 0.0 | 0.0 | 0.00 | 0.09 | 0.00 | 94 | 1013.5 |
| 20260903050739 | 58 | 290 | 0.0 | 0.0 | 0.00 | 0.09 | 0.00 | 94 | 1013.5 |
| 20260903045239 | 58 | 290 | 0.0 | 0.0 | 0.00 | 0.09 | 0.00 | 94 | 1013.3 |
| 20260903044239 | 58 | 290 | 0.0 | 0.0 | 0.00 | 0.09 | 0.00 | 94 | 1013.4 |
| 20260903042739 | 59 | 290 | 0.0 | 0.0 | 0.00 | 0.09 | 0.00 | 94 | 1013.2 |
| 20260903041738 | 59 | 290 | 0.0 | 0.0 | 0.00 | 0.09 | 0.00 | 94 | 1013.2 |
| 20260903041239 | 59 | 290 | 0.0 | 0.0 | 0.00 | 0.09 | 0.00 | 94 | 1013.2 |
| 20260903040739 | 59 | 290 | 0.0 | 0.0 | 0.00 | 0.09 | 0.00 | 94 | 1013.1 |
| 20260903040239 | 59 | 290 | 0.0 | 0.0 | 0.00 | 0.09 | 0.00 | 94 | 1013.1 |
| 20260903035739 | 59 | 290 | 0.0 | 0.0 | 0.00 | 0.09 | 0.00 | 94 | 1013.1 |
| 20260903035238 | 59 | 290 | 0.0 | 0.0 | 0.00 | 0.09 | 0.09 | 94 | 1013.0 |
| 20260903034239 | 59 | 290 | 0.0 | 0.0 | 0.00 | 0.09 | 0.09 | 94 | 1012.9 |
| 20260903033239 | 60 | 290 | 0.0 | 0.0 | 0.00 | 0.09 | 0.09 | 94 | 1012.8 |
| 20260903032239 | 60 | 290 | 0.0 | 0.0 | 0.00 | 0.09 | 0.09 | 94 | 1012.7 |
| 20260903031739 | 60 | 290 | 0.0 | 0.0 | 0.00 | 0.09 | 0.09 | 94 | 1012.8 |
| 20260903030739 | 60 | 290 | 0.0 | 0.0 | 0.00 | 0.09 | 0.09 | 94 | 1012.8 |
| 20260903030239 | 60 | 290 | 0.0 | 0.0 | 0.00 | 0.09 | 0.09 | 94 | 1012.8 |
| 20260903025739 | 60 | 290 | 0.0 | 0.0 | 0.00 | 0.09 | 0.09 | 93 | 1012.8 |
| 20260903025239 | 60 | 290 | 0.0 | 0.0 | 0.00 | 0.09 | 0.09 | 93 | 1012.8 |
| 20260903024739 | 61 | 290 | 0.0 | 0.0 | 0.00 | 0.09 | 0.09 | 93 | 1012.8 |
| 20260903024239 | 61 | 290 | 0.0 | 0.0 | 0.00 | 0.09 | 0.09 | 93 | 1012.7 |
| 20260903023739 | 61 | 290 | 0.0 | 0.0 | 0.00 | 0.09 | 0.09 | 93 | 1012.7 |
| 20260903022738 | 61 | 290 | 0.0 | 0.0 | 0.00 | 0.09 | 0.09 | 93 | 1012.7 |
| 20260903022238 | 61 | 290 | 0.0 | 0.0 | 0.00 | 0.09 | 0.09 | 93 | 1012.7 |
| 20260903015749 | 62 | 290 | 0.0 | 0.0 | 0.00 | 0.09 | 0.09 | 92 | 1012.5 |
| 20260903014749 | 63 | 290 | 0.0 | 0.0 | 0.00 | 0.09 | 0.09 | 92 | 1012.5 |
| 20260903013748 | 63 | 290 | 0.0 | 0.0 | 0.00 | 0.09 | 0.09 | 91 | 1012.5 |
| 20260903013248 | 63 | 290 | 0.0 | 0.0 | 0.00 | 0.09 | 0.09 | 91 | 1012.5 |
| 20260903012748 | 63 | 290 | 0.0 | 0.0 | 0.00 | 0.09 | 0.09 | 91 | 1012.5 |
| 20260903012249 | 64 | 290 | 0.0 | 0.0 | 0.00 | 0.09 | 0.09 | 91 | 1012.4 |
| 20260903011748 | 64 | 290 | 0.0 | 0.0 | 0.00 | 0.09 | 0.09 | 90 | 1012.4 |
| 20260903011248 | 64 | 290 | 0.0 | 0.0 | 0.00 | 0.09 | 0.09 | 90 | 1012.3 |
| 20260903010749 | 65 | 290 | 0.0 | 0.0 | 0.00 | 0.09 | 0.09 | 90 | 1012.4 |
| 20260903010248 | 65 | 290 | 0.0 | 0.0 | 0.00 | 0.09 | 0.09 | 89 | 1012.3 |
| 20260903005749 | 65 | 290 | 0.0 | 0.0 | 0.00 | 0.09 | 0.09 | 88 | 1012.3 |
| 20260903005249 | 66 | 290 | 0.0 | 0.0 | 0.00 | 0.09 | 0.09 | 88 | 1012.2 |
| 20260903004749 | 66 | 290 | 0.0 | 0.0 | 0.00 | 0.09 | 0.09 | 87 | 1012.1 |
| 20260903004249 | 67 | 290 | 0.0 | 0.0 | 0.00 | 0.09 | 0.09 | 87 | 1012.1 |
| 20260903003248 | 67 | 290 | 0.0 | 0.0 | 0.00 | 0.09 | 0.09 | 85 | 1011.8 |
| 20260903002748 | 68 | 290 | 0.0 | 0.0 | 0.00 | 0.09 | 0.09 | 85 | 1012.0 |
| 20260903002248 | 68 | 290 | 0.0 | 0.0 | 0.00 | 0.09 | 0.09 | 84 | 1012.1 |
| 20260903001748 | 69 | 290 | 0.0 | 0.0 | 0.00 | 0.09 | 0.09 | 83 | 1012.2 |
| 20260903000249 | 70 | 290 | 0.0 | 0.0 | 0.00 | 0.09 | 0.09 | 81 | 1012.1 |
| 20260902235748 | 70 | 290 | 0.0 | 0.0 | 0.00 | 0.09 | 0.09 | 80 | 1012.2 |
| 20260902235248 | 70 | 290 | 0.0 | 0.0 | 0.00 | 0.09 | 0.09 | 79 | 1012.2 |
| 20260902234248 | 71 | 290 | 0.0 | 0.0 | 0.00 | 0.09 | 0.09 | 79 | 1012.4 |
| 20260902233748 | 71 | 290 | 0.0 | 0.0 | 0.00 | 0.09 | 0.09 | 78 | 1012.4 |
| 20260902233248 | 71 | 290 | 0.0 | 0.0 | 0.00 | 0.09 | 0.09 | 76 | 1012.3 |
| 20260902232748 | 72 | 294 | 0.0 | 0.0 | 0.00 | 0.09 | 0.09 | 74 | 1012.4 |
| 20260902232249 | 72 | 294 | 0.0 | 0.0 | 0.00 | 0.09 | 0.09 | 75 | 1012.4 |
| 20260902231749 | 72 | 294 | 0.0 | 0.0 | 0.00 | 0.09 | 0.09 | 76 | 1012.4 |
| 20260902231248 | 72 | 294 | 0.0 | 0.0 | 0.00 | 0.09 | 0.09 | 76 | 1012.3 |
| 20260902230748 | 72 | 294 | 0.0 | 0.0 | 0.00 | 0.09 | 0.09 | 75 | 1012.3 |
| 20260902230248 | 73 | 294 | 0.0 | 0.0 | 0.00 | 0.09 | 0.09 | 73 | 1012.4 |
| 20260902225748 | 73 | 250 | 0.0 | 0.0 | 0.00 | 0.09 | 0.09 | 73 | 1012.5 |
| 20260902225249 | 73 | 300 | 0.0 | 0.0 | 0.00 | 0.09 | 0.09 | 74 | 1012.4 |
| 20260902224748 | 73 | 327 | 0.0 | 0.0 | 0.00 | 0.09 | 0.09 | 73 | 1012.4 |
| 20260902224248 | 74 | 232 | 0.0 | 0.0 | 0.00 | 0.09 | 0.09 | 76 | 1012.4 |
| 20260902223748 | 74 | 240 | 0.0 | 0.0 | 0.00 | 0.09 | 0.09 | 73 | 1012.4 |
| 20260902223249 | 74 | 321 | 0.0 | 0.0 | 0.00 | 0.09 | 0.09 | 74 | 1012.4 |
| 20260902222748 | 74 | 281 | 0.0 | 0.0 | 0.00 | 0.09 | 0.09 | 72 | 1012.4 |
| 20260902222248 | 74 | 13 | 0.0 | 0.0 | 0.00 | 0.09 | 0.09 | 73 | 1012.3 |
| 20260902221749 | 75 | 342 | 0.0 | 0.0 | 0.00 | 0.09 | 0.09 | 72 | 1012.3 |
| 20260902221248 | 75 | 351 | 0.0 | 0.0 | 0.00 | 0.09 | 0.09 | 71 | 1012.4 |
| 20260902215741 | 77 | 275 | 0.0 | 0.0 | 0.00 | 0.09 | 0.09 | 68 | 1012.5 |
| 20260902215241 | 77 | 273 | 0.0 | 0.0 | 0.00 | 0.09 | 0.09 | 67 | 1012.5 |
| 20260902214741 | 77 | 291 | 0.0 | 0.0 | 0.00 | 0.09 | 0.09 | 67 | 1012.5 |
| 20260902213741 | 78 | 302 | 0.0 | 0.0 | 0.00 | 0.09 | 0.09 | 65 | 1012.4 |
| 20260902213241 | 78 | 280 | 0.0 | 0.0 | 0.00 | 0.09 | 0.09 | 65 | 1012.5 |
| 20260902212741 | 78 | 340 | 0.0 | 0.0 | 0.00 | 0.09 | 0.09 | 65 | 1012.6 |
| 20260902212241 | 78 | 336 | 0.0 | 0.0 | 0.00 | 0.09 | 0.09 | 63 | 1012.6 |
| 20260902211741 | 78 | 235 | 0.0 | 0.0 | 0.00 | 0.09 | 0.09 | 63 | 1012.6 |
| 20260902211241 | 78 | 219 | 0.0 | 0.0 | 0.00 | 0.09 | 0.09 | 63 | 1012.5 |
| 20260902210241 | 78 | 291 | 0.0 | 0.0 | 0.00 | 0.09 | 0.09 | 64 | 1012.6 |
| 20260902205741 | 78 | 304 | 0.0 | 0.0 | 0.00 | 0.09 | 0.09 | 66 | 1012.5 |
| 20260902205241 | 78 | 285 | 0.0 | 0.0 | 0.00 | 0.09 | 0.09 | 62 | 1012.5 |
| 20260902204741 | 78 | 283 | 0.0 | 0.0 | 0.00 | 0.09 | 0.09 | 62 | 1012.5 |
| 20260902204241 | 78 | 306 | 0.0 | 0.0 | 0.00 | 0.09 | 0.09 | 65 | 1012.6 |
| 20260902203741 | 78 | 279 | 0.0 | 0.0 | 0.00 | 0.09 | 0.09 | 65 | 1012.6 |
| 20260902202741 | 78 | 321 | 0.0 | 0.0 | 0.00 | 0.09 | 0.09 | 64 | 1012.8 |
| 20260902202241 | 78 | 265 | 0.0 | 0.0 | 0.00 | 0.09 | 0.09 | 65 | 1012.9 |
| 20260902200741 | 78 | 340 | 0.0 | 0.0 | 0.00 | 0.09 | 0.09 | 66 | 1012.9 |